This demonstration page uses our WeatherBlox Daily Observations layout. Learn more.

Left ArrowRight Arrow

38.88101, -77.10428

Hourly Observations for July 7, 2016

Temp ( °F °C ) Dew Point ( °F °C ) Humidity (%) Winds ( mph kmh ) Pressure ( in mb ) Visibility ( mi km ) Precip ( " mm )
12:52 am 00:52 Clear 81 27.2 76 24.4 85 85 S 7 11 29.85 1011 10 16.0934 0 0
1:52 am 01:52 Clear 80 26.7 76 24.4 87 87 S 7 11 29.84 1011 10 16.0934 0 0
2:52 am 02:52 Clear 79 26.1 76 24.4 90 90 SSW 6 9 29.82 1010 10 16.0934 0 0
3:52 am 03:52 Clear 78 25.6 76 24.4 93 93 S 7 11 29.8 1009 10 16.0934 0 0
4:52 am 04:52 Partly Cloudy 78 25.6 75 23.9 90 90 SSW 5 7 29.8 1009 10 16.0934 0 0
5:52 am 05:52 Mostly Cloudy 77 25 75 23.9 94 94 SSW 5 7 29.82 1010 8 12.87472 0 0
6:52 am 06:52 Partly Cloudy 78 25.6 75 23.9 90 90 SSW 6 9 29.83 1010 10 16.0934 0 0
7:52 am 07:52 Partly Cloudy 80 26.7 75 23.9 85 85 SE 5 7 29.85 1011 10 16.0934 0 0
8:52 am 08:52 Mostly Cloudy 86 30 70 21.1 59 59 WNW 8 13 29.86 1011 10 16.0934 0 0
9:52 am 09:52 Mostly Cloudy 87 30.6 70 21.1 57 57 NW 13 20 29.85 1011 10 16.0934 0 0
10:52 am 10:52 Mostly Cloudy 88 31.1 71 21.7 57 57 NNE 9 15 29.84 1011 10 16.0934 0 0
11:52 am 11:52 Partly Cloudy 89 31.7 70 21.1 53 53 WSW 10 17 29.84 1011 10 16.0934 0 0
12:52 pm 12:52 Mostly Cloudy 91 32.8 71 21.7 52 52 W 6 9 29.83 1010 10 16.0934 0 0
1:52 pm 13:52 Mostly Cloudy 92 33.3 70 21.1 49 49 W 8 13 29.8 1009 10 16.0934 0 0
2:52 pm 14:52 Mostly Cloudy 90 32.2 71 21.7 54 54 N 10 17 29.79 1009 10 16.0934 0 0
3:52 pm 15:52 Mostly Cloudy 93 33.9 70 21.1 47 47 W 8 13 29.79 1009 10 16.0934 0 0
4:40 pm 16:40 Cloudy 90 32.2 72 22.2 56 56 NNW 12 19 29.8 1009 10 16.0934 0 0
4:52 pm 16:52 Cloudy 89 31.7 71 21.7 55 55 NW 13 20 29.79 1009 10 16.0934 0 0
5:52 pm 17:52 Mostly Cloudy 90 32.2 71 21.7 54 54 NNW 9 15 29.78 1009 10 16.0934 0 0
6:52 pm 18:52 Mostly Cloudy 89 31.7 70 21.1 53 53 NNW 12 19 29.78 1009 10 16.0934 0 0
7:52 pm 19:52 Mostly Cloudy 87 30.6 70 21.1 57 57 NNW 10 17 29.8 1009 10 16.0934 0 0
8:32 pm 20:32 Cloudy 87 30.6 70 21.1 57 57 W 8 13 29.83 1010 10 16.0934 0 0
8:52 pm 20:52 Cloudy 87 30.6 70 21.1 57 57 NW 7 11 29.81 1010 10 16.0934 0 0
9:52 pm 21:52 Cloudy 85 29.4 69 20.6 59 59 NNW 8 13 29.81 1009 10 16.0934 0 0
10:52 pm 22:52 Mostly Cloudy 85 29.4 69 20.6 59 59 WNW 7 11 29.82 1010 10 16.0934 0 0
11:52 pm 23:52 Mostly Cloudy 84 28.9 69 20.6 61 61 WNW 8 13 29.83 1010 10 16.0934 0 0

Powered by AerisWeather